Location: Capvern
(43.1036°N, 0.3160°E)
Time: 22:32:33
(UTC+00:00)

YAOGAN 1 - Pass Details

Date: 16 October 2021
Orbit: 618 x 620 km, 97.9° (Epoch: 03 December)

Event Time Altitude Azimuth Distance (km) Brightness Sun altitude
Rises 18:02:17 0° 141° (SE) 2,884 5.6 -9.5°
Reaches altitude 10° 18:04:38 10° 132° (SE) 1,983 4.7 -10.0°
Maximum altitude 18:08:27 32° 69° (ENE) 1,072 3.3 -10.7°
Drops below altitude 10° 18:12:19 10° 7° (N) 1,997 5.1 -11.4°
Sets 18:14:40 0° 357° (N) 2,908 6.0 -11.8°
